This is the latest recevied weather packets stored in our database for station/object NW5W-12. If no packets are shown the sender has not sent any weather packets the latest 10 day(s).
| Time | Temp. | Humidity | Pressure | Rain* | Wind** | Luminosity | Snow |
|---|---|---|---|---|---|---|---|
| 1777838931 | 21.11° C | 17% | 1016.8 hPa | 0 mm | - | - | - |
| 1777838631 | 21.11° C | 18% | 1016.8 hPa | 0 mm | - | - | - |
| 1777838331 | 20.56° C | 17% | 1016.9 hPa | 0 mm | - | - | - |
| 1777837731 | 20.56° C | 16% | 1017 hPa | 0 mm | - | - | - |
| 1777837431 | 21.11° C | 17% | 1017.1 hPa | 0 mm | - | - | - |
| 1777837131 | 21.11° C | 17% | 1017.1 hPa | 0 mm | - | - | - |
| 1777836831 | 21.11° C | 18% | 1017.1 hPa | 0 mm | - | - | - |
| 1777836531 | 21.11° C | 18% | 1017.2 hPa | 0 mm | - | - | - |
| 1777836230 | 20.56° C | 17% | 1017.2 hPa | 0 mm | - | - | - |
| 1777835931 | 20.56° C | 21% | 1017.2 hPa | 0 mm | - | - | - |
| 1777835631 | 20.56° C | 22% | 1017.3 hPa | 0 mm | - | - | - |
| 1777835031 | 18.89° C | 22% | 1017.4 hPa | 0 mm | - | - | - |
| 1777834731 | 18.33° C | 22% | 1017.5 hPa | 0 mm | - | - | - |
| 1777834431 | 17.78° C | 22% | 1017.6 hPa | 0 mm | - | - | - |
| 1777834130 | 18.33° C | 21% | 1017.7 hPa | 0 mm | - | - | - |
| 1777833831 | 18.89° C | 20% | 1017.7 hPa | 0 mm | - | - | - |
| 1777833530 | 18.33° C | 23% | 1017.7 hPa | 0 mm | - | - | - |
| 1777833231 | 18.89° C | 21% | 1017.8 hPa | 0 mm | - | - | - |
| 1777832931 | 18.33° C | 21% | 1017.8 hPa | 0 mm | - | - | - |
| 1777832331 | 18.33° C | 22% | 1017.9 hPa | 0 mm | - | - | - |
| 1777832031 | 18.33° C | 21% | 1017.9 hPa | 0 mm | - | - | - |
| 1777831431 | 18.89° C | 21% | 1017.9 hPa | 0 mm | - | - | - |
| 1777831131 | 18.89° C | 19% | 1018 hPa | 0 mm | - | - | - |
| 1777830830 | 18.33° C | 23% | 1018 hPa | 0 mm | - | - | - |
| 1777830531 | 18.33° C | 22% | 1018 hPa | 0 mm | - | - | - |
* Rain since midnight (hover to see other rain measurements)
** Current wind speed in m/s (hover to see current wind gust speed)